Weather reports worldwide

Advertisment
Moses Lake, wa, United States of America (2074711): temperature & dewpoint: 16.05.2019 09:00:00 - 22.05.2019 09:00:00 (PDT)Moses Lake, wa, United States of America (2074711): wind speed & gusts: 16.05.2019 09:00:00 - 22.05.2019 09:00:00 (PDT)Moses Lake, wa, United States of America (2074711): wind direction: 16.05.2019 09:00:00 - 22.05.2019 09:00:00 (PDT)Moses Lake, wa, United States of America (2074711): reduced air pressure: 16.05.2019 09:00:00 - 22.05.2019 09:00:00 (PDT)Moses Lake, wa, United States of America (2074711): visibility: 16.05.2019 09:00:00 - 22.05.2019 09:00:00 (PDT)Moses Lake, wa, United States of America (2074711): precipitation: 16.05.2019 09:00:00 - 22.05.2019 09:00:00 (PDT)
Date & Time tt [°C] td [°C] ff [km/h] ff [kn] fx [km/h] fx [kn] dd ppp [hPa] vv [km] rr [mm]
22.05.2019 09:00:00 - - - - - - - - - -
22.05.2019 08:00:00 17,8 6,1 13 7 - - NE 1012,2 16 -
22.05.2019 07:00:00 15,6 6,1 13 7 - - N 1011,6 16 -
22.05.2019 06:00:00 15,0 5,6 11 6 - - N 1011,1 16 -
22.05.2019 05:00:00 13,9 5,6 9 5 - - NNW 1010,4 16 -
22.05.2019 04:00:00 15,0 5,0 11 6 - - N 1009,6 16 -
22.05.2019 03:00:00 15,6 4,4 11 6 - - N 1009,0 16 -
22.05.2019 02:00:00 15,0 5,0 11 6 - - N 1008,4 16 -
22.05.2019 01:00:00 15,6 5,0 13 7 - - N 1007,7 16 -
22.05.2019 00:00:00 15,0 6,1 11 6 - - N 1007,5 16 -
21.05.2019 23:00:00 16,7 6,7 9 5 - - N 1007,3 16 -
21.05.2019 22:00:00 16,1 8,9 - - - - - 1006,8 16 -
21.05.2019 21:00:00 16,7 8,9 0 0 - - N 1006,5 16 -
21.05.2019 20:00:00 16,1 8,9 8 4 - - SSW 1006,2 16 -
21.05.2019 19:00:00 16,1 8,3 11 6 - - S 1005,6 16 -
21.05.2019 18:00:00 17,8 7,8 15 8 - - SSW 1005,3 16 -
21.05.2019 17:00:00 18,3 7,8 15 8 - - S 1005,0 16 -
21.05.2019 16:00:00 18,9 7,8 16 9 - - S 1004,9 16 -
21.05.2019 15:00:00 19,4 7,8 18 10 - - S 1004,6 16 -
21.05.2019 14:00:00 18,3 6,7 16 9 - - S 1004,2 16 -
21.05.2019 13:00:00 21,7 2,2 8 4 - - - 1003,5 16 -
21.05.2019 12:00:00 20,6 2,2 11 6 - - - 1003,5 16 -
21.05.2019 11:00:00 18,3 1,7 11 6 - - E 1003,6 16 -
21.05.2019 10:00:00 17,8 1,7 16 9 - - NE 1003,7 16 -
21.05.2019 09:00:00 15,6 2,2 15 8 - - NE 1003,7 16 -
21.05.2019 08:00:00 13,3 4,4 11 6 - - NE 1003,9 16 -
21.05.2019 07:00:00 11,7 3,9 9 5 - - NE 1003,9 16 -
21.05.2019 06:00:00 10,0 3,9 11 6 - - NNE 1003,6 16 -
21.05.2019 05:00:00 11,1 - 9 5 - - E 1003,2 16 -
21.05.2019 04:00:00 11,7 - 5 3 - - ESE 1003,2 16 -
21.05.2019 03:00:00 12,8 - 22 12 - - E 1003,0 16 -
21.05.2019 02:00:00 13,9 1,1 24 13 - - E 1002,9 16 -
21.05.2019 01:00:00 14,4 1,1 22 12 - - ENE 1002,8 16 -
21.05.2019 00:00:00 15,6 2,2 21 11 - - ENE 1003,0 16 -
20.05.2019 23:00:00 16,7 2,8 22 12 - - ENE 1003,0 16 -
20.05.2019 22:00:00 17,8 2,8 22 12 - - E 1003,2 16 -
20.05.2019 21:00:00 18,3 3,3 18 10 - - ENE 1003,2 16 -
20.05.2019 20:00:00 19,4 2,8 13 7 - - ENE 1003,4 16 -
20.05.2019 19:00:00 20,6 2,8 11 6 - - ENE 1003,6 16 -
20.05.2019 18:00:00 21,7 0,0 9 5 - - ENE 1004,0 16 -
20.05.2019 17:00:00 22,2 0,0 24 13 - - ENE 1004,1 16 -
20.05.2019 16:00:00 22,2 -0,6 8 4 - - NNE 1004,4 16 -
20.05.2019 15:00:00 22,8 0,0 18 10 - - N 1004,8 16 -
20.05.2019 14:00:00 22,8 -0,6 9 5 - - WNW 1005,4 16 -
20.05.2019 13:00:00 22,2 -0,6 8 4 - - - 1005,7 16 -
20.05.2019 12:00:00 20,0 -1,1 0 0 - - N 1006,0 16 -
20.05.2019 11:00:00 20,6 -0,6 22 12 - - NE 1006,2 16 -
20.05.2019 10:00:00 19,4 -0,6 18 10 - - N 1006,5 16 -
20.05.2019 09:00:00 17,8 -0,6 24 13 - - NE 1006,9 16 -
20.05.2019 08:00:00 16,1 1,7 18 10 - - N 1006,9 16 -
20.05.2019 07:00:00 13,3 1,7 15 8 - - N 1006,9 16 -
20.05.2019 06:00:00 11,7 2,2 15 8 - - NNW 1006,5 16 -
20.05.2019 05:00:00 12,2 2,2 16 9 - - N 1006,2 10 -
20.05.2019 04:00:00 11,7 2,2 16 9 - - N 1006,2 16 -
20.05.2019 03:00:00 11,7 2,8 15 8 - - N 1006,1 16 -
20.05.2019 02:00:00 10,6 2,8 15 8 - - N 1006,2 16 -
20.05.2019 01:00:00 12,2 2,2 16 9 - - N 1005,9 16 -
20.05.2019 00:00:00 13,9 1,7 22 12 - - NE 1005,7 16 -
19.05.2019 23:00:00 15,6 2,2 26 14 - - NE 1005,6 16 -
19.05.2019 22:00:00 16,1 2,8 24 13 - - ENE 1005,0 16 -
19.05.2019 21:00:00 17,8 3,3 22 12 - - ENE 1004,4 16 -
19.05.2019 20:00:00 20,0 3,3 29 16 - - ENE 1003,5 16 -
19.05.2019 19:00:00 21,7 4,4 22 12 - - ENE 1003,0 16 -
19.05.2019 18:00:00 24,4 5,0 28 15 - - NE 1002,6 16 -
19.05.2019 17:00:00 23,9 4,4 28 15 - - NNE 1002,8 16 -
19.05.2019 16:00:00 24,4 4,4 28 15 - - N 1003,2 16 -
19.05.2019 15:00:00 23,9 4,4 29 16 - - NNE 1003,8 16 -
19.05.2019 14:00:00 21,7 3,9 16 9 - - NE 1004,6 16 -
19.05.2019 13:00:00 22,8 4,4 28 15 - - NE 1004,8 16 -
19.05.2019 12:00:00 21,7 3,9 28 15 - - NNE 1005,3 16 -
19.05.2019 11:00:00 20,0 4,4 29 16 - - NE 1005,5 10 -
19.05.2019 10:00:00 18,3 3,9 29 16 - - ENE 1006,1 16 -
19.05.2019 09:00:00 16,7 3,3 35 19 - - ENE 1006,3 16 -
19.05.2019 08:00:00 15,0 3,9 29 16 - - NE 1006,3 16 -
19.05.2019 07:00:00 13,3 3,9 26 14 - - NE 1006,3 16 -
19.05.2019 06:00:00 12,8 3,9 26 14 - - NE 1006,0 16 -
19.05.2019 05:00:00 12,8 3,9 22 12 - - NE 1006,1 16 -
19.05.2019 04:00:00 13,3 4,4 28 15 - - NE 1005,9 16 0,0
19.05.2019 03:00:00 13,9 5,0 21 11 50 27 NE 1006,0 16 -
19.05.2019 02:00:00 13,9 6,1 35 19 48 26 NE 1005,9 16 -
19.05.2019 01:00:00 13,3 6,7 26 14 - - NE 1006,4 16 -
19.05.2019 00:00:00 12,8 6,7 26 14 - - NE 1006,7 16 -
18.05.2019 23:00:00 13,9 6,7 31 17 - - NE 1006,6 16 -
18.05.2019 22:00:00 14,4 6,7 28 15 - - ENE 1006,9 16 -
18.05.2019 21:00:00 16,1 7,2 29 16 - - ENE 1006,2 16 -
18.05.2019 20:00:00 18,9 6,7 28 15 48 26 ENE 1005,7 16 -
18.05.2019 19:00:00 21,7 3,3 28 15 - - E 1005,7 16 -
18.05.2019 18:00:00 21,7 1,7 11 6 - - E 1006,6 16 -
18.05.2019 17:00:00 21,7 2,8 8 4 - - SE 1007,3 16 -
18.05.2019 16:00:00 20,6 3,3 11 6 - - S 1008,2 16 -
18.05.2019 15:00:00 21,1 3,9 11 6 - - - 1008,8 16 -
18.05.2019 14:00:00 18,9 3,9 11 6 - - SW 1009,4 16 -
18.05.2019 13:00:00 19,4 - 13 7 - - SSE 1009,6 16 -
18.05.2019 12:00:00 18,3 - 9 5 - - SW 1010,0 16 -
18.05.2019 11:00:00 17,8 - 8 4 - - SSE 1010,6 16 -
18.05.2019 10:00:00 16,7 - 0 0 - - N 1010,7 16 -
18.05.2019 09:00:00 14,4 - 5 3 - - SSW 1011,1 16 -
18.05.2019 08:00:00 12,8 - 13 7 - - SSE 1011,2 16 -
18.05.2019 07:00:00 8,9 - 9 5 - - S 1011,2 16 -
18.05.2019 06:00:00 6,7 - 13 7 - - SSE 1011,0 16 -
18.05.2019 05:00:00 8,3 - 8 4 - - W 1010,9 16 -
18.05.2019 04:00:00 9,4 - 5 3 - - SW 1010,8 16 -
18.05.2019 03:00:00 9,4 - 9 5 - - WSW 1010,6 16 -
18.05.2019 02:00:00 10,0 - 15 8 - - SW 1010,4 16 -
18.05.2019 01:00:00 10,6 - 0 0 - - N 1010,1 16 -
18.05.2019 00:00:00 11,1 3,3 11 6 - - W 1010,1 16 -
17.05.2019 23:00:00 12,2 2,8 16 9 - - WSW 1009,9 16 -
17.05.2019 22:00:00 12,8 2,2 15 8 - - W 1009,6 16 -
17.05.2019 21:00:00 15,0 1,7 18 10 - - W 1009,1 16 -
17.05.2019 20:00:00 17,2 0,6 18 10 - - NW 1008,6 16 -
17.05.2019 19:00:00 20,0 -0,6 31 17 - - WNW 1007,8 16 -
17.05.2019 18:00:00 21,1 1,7 28 15 - - WNW 1007,6 16 -
17.05.2019 17:00:00 20,6 3,3 22 12 - - WNW 1007,3 16 -
17.05.2019 16:00:00 18,9 5,0 16 9 - - WSW 1007,5 16 -
17.05.2019 15:00:00 18,9 5,0 26 14 - - WNW 1007,2 16 -
17.05.2019 14:00:00 18,9 5,6 21 11 - - W 1007,0 16 -
17.05.2019 13:00:00 18,9 6,1 18 10 - - W 1006,5 16 -
17.05.2019 12:00:00 17,8 7,2 21 11 - - W 1006,0 16 -
17.05.2019 11:00:00 16,7 8,9 13 7 - - W 1005,5 16 -
17.05.2019 10:00:00 15,0 9,4 13 7 - - WSW 1005,1 16 0,0
17.05.2019 09:00:00 14,4 10,6 18 10 - - W 1004,4 16 0,3
17.05.2019 08:00:00 13,9 10,0 26 14 - - W 1003,6 16 0,3
17.05.2019 07:00:00 14,4 10,6 22 12 - - W 1002,8 16 -
17.05.2019 06:00:00 13,9 10,6 21 11 - - WSW 1002,0 16 -
17.05.2019 05:00:00 13,9 11,7 16 9 - - SW 1001,6 16 -
17.05.2019 04:00:00 14,4 11,7 15 8 - - SW 1001,1 16 0,0
17.05.2019 03:00:00 15,0 12,2 9 5 - - SSW 1000,5 16 -
17.05.2019 02:00:00 14,4 12,2 5 3 - - WSW 1000,4 11 -
17.05.2019 01:00:00 13,9 12,2 5 3 - - NW 1000,3 16 -
17.05.2019 00:00:00 14,4 11,7 11 6 - - WSW 1000,3 16 0,0
16.05.2019 23:00:00 15,0 12,2 15 8 - - SW 1000,3 16 -
16.05.2019 22:00:00 15,0 12,2 9 5 - - SW 1000,1 16 -
16.05.2019 21:00:00 15,0 12,8 0 0 - - N 1000,2 16 0,3
16.05.2019 20:00:00 15,0 12,8 5 3 - - WSW 999,8 16 -
16.05.2019 19:00:00 15,0 12,8 8 4 - - WNW 999,5 16 0,0
16.05.2019 18:00:00 15,0 12,8 13 7 - - NW 999,8 16 2,8
16.05.2019 17:00:00 15,6 12,8 5 3 - - - 999,9 4,0 1,3
16.05.2019 16:00:00 18,3 12,2 16 9 - - SSW 999,4 16 0,0
16.05.2019 15:00:00 21,1 11,7 16 9 - - SSE 998,5 16 0,3
16.05.2019 14:00:00 21,7 11,7 13 7 - - SE 998,5 16 -
16.05.2019 13:00:00 22,2 11,7 5 3 - - - 999,1 16 -
16.05.2019 12:00:00 21,1 11,7 8 4 - - NW 999,8 16 -
16.05.2019 11:00:00 20,6 11,7 0 0 - - N 1000,4 16 -
16.05.2019 10:00:00 18,9 11,7 0 0 - - N 1000,7 16 -
16.05.2019 09:00:00 18,3 11,7 13 7 - - NNE 1001,0 16 -

tt = temperature
td = dewpoint
ff = wind speed
fx = gusts
dd = wind direction
ppp = reduced air pressure
vv = visibility
rr = precipitation

Next stations